GW0531 Weather Reports


Display with metric or nautical units.
time (UTC)temp
F
wind
direction
speed
MPH
gust
MPH
rain 1hr
in
rain 24hr
in
rain mn
in
humidity
%
barometer
mb
20260503211614 70 97 3.0 7.0 0.00 0.00 0.00 52 1017.6
20260503211109 73 243 2.0 4.0 0.00 0.00 0.00 47 1017.7
20260503210606 73 200 1.0 3.0 0.00 0.00 0.00 41 1017.6
20260503205558 73 267 2.0 3.0 0.00 0.00 0.00 43 1017.9
20260503205055 72 140 1.0 4.0 0.00 0.00 0.00 43 1017.8
20260503204552 74 140 3.0 3.0 0.00 0.00 0.00 43 1017.9
20260503204049 72 323 2.0 3.0 0.00 0.00 0.00 43 1017.9
20260503203546 71 29 2.0 3.0 0.00 0.00 0.00 43 1018.1
20260503203043 71 153 1.0 3.0 0.00 0.00 0.00 43 1018.0
20260503202541 71 238 2.0 4.0 0.00 0.00 0.00 43 1018.1
20260503202039 72 136 2.0 4.0 0.00 0.00 0.00 43 1018.3
20260503201537 73 162 1.0 4.0 0.00 0.00 0.00 41 1018.0
20260503201034 74 309 4.0 5.0 0.00 0.00 0.00 39 1018.3
20260503200530 74 219 2.0 3.0 0.00 0.00 0.00 40 1018.4
20260503200027 73 199 3.0 3.0 0.00 0.00 0.00 40 1018.6
20260503195524 72 132 0.0 5.0 0.00 0.00 0.00 43 1018.6
20260503195021 72 282 4.0 7.0 0.00 0.00 0.00 41 1018.7
20260503194518 73 251 4.0 6.0 0.00 0.00 0.00 40 1018.6
20260503194017 73 279 2.0 6.0 0.00 0.00 0.00 40 1018.7
20260503193514 73 294 5.0 10.0 0.00 0.00 0.00 41 1018.9
20260503193009 73 301 0.0 3.0 0.00 0.00 0.00 41 1018.9
20260503192506 73 237 3.0 6.0 0.00 0.00 0.00 40 1019.0
20260503192001 73 314 2.0 6.0 0.00 0.00 0.00 41 1019.1
20260503191459 72 231 2.0 4.0 0.00 0.00 0.00 42 1019.3
20260503190955 71 339 2.0 5.0 0.00 0.00 0.00 43 1019.3
20260503190453 70 297 3.0 3.0 0.00 0.00 0.00 48 1019.4
20260503185950 71 315 4.0 6.0 0.00 0.00 0.00 43 1019.6
20260503185446 72 231 2.0 3.0 0.00 0.00 0.00 42 1019.6
20260503184945 71 115 3.0 5.0 0.00 0.00 0.00 44 1019.6
20260503184442 71 143 2.0 6.0 0.00 0.00 0.00 42 1019.7
20260503183938 70 148 0.0 5.0 0.00 0.00 0.00 45 1019.9
20260503183435 71 242 3.0 6.0 0.00 0.00 0.00 42 1019.9
20260503182932 71 303 2.0 3.0 0.00 0.00 0.00 47 1019.8
20260503182431 70 273 2.0 3.0 0.00 0.00 0.00 47 1020.1
20260503181928 70 263 2.0 3.0 0.00 0.00 0.00 46 1020.3
20260503181425 71 347 2.0 2.0 0.00 0.00 0.00 44 1020.2
20260503180921 71 181 1.0 5.0 0.00 0.00 0.00 43 1020.2
20260503180420 71 312 1.0 6.0 0.00 0.00 0.00 42 1020.0
20260503175916 70 226 4.0 5.0 0.00 0.00 0.00 49 1020.4
20260503175415 69 226 5.0 8.0 0.00 0.00 0.00 45 1020.4
20260503174910 70 278 4.0 4.0 0.00 0.00 0.00 47 1020.2
20260503174409 71 261 2.0 5.0 0.00 0.00 0.00 45 1020.1
20260503173908 71 261 5.0 5.0 0.00 0.00 0.00 43 1020.1
20260503173405 71 184 2.0 6.0 0.00 0.00 0.00 41 1020.2
20260503172902 72 27 2.0 3.0 0.00 0.00 0.00 45 1020.3
20260503172359 69 180 0.0 3.0 0.00 0.00 0.00 48 1020.3
20260503171855 69 222 4.0 4.0 0.00 0.00 0.00 45 1020.5
20260503171352 69 163 1.0 3.0 0.00 0.00 0.00 46 1020.6
20260503170850 71 103 1.0 5.0 0.00 0.00 0.00 44 1020.5
20260503170346 70 0 2.0 4.0 0.00 0.00 0.00 48 1020.6
20260503150738 67 285 2.0 4.0 0.00 0.00 0.00 58 1021.1
20260503150234 66 106 0.0 3.0 0.00 0.00 0.00 58 1021.1
20260503140159 63 89 0.0 3.0 0.00 0.00 0.00 69 1020.7
20260503131128 56 355 2.0 2.0 0.00 0.00 0.00 99 1020.7
20260503130626 55 50 0.0 2.0 0.00 0.00 0.00 99 1020.6
20260503130123 54 268 1.0 2.0 0.00 0.00 0.00 99 1020.8
20260503110516 46 294 0.0 0.0 0.00 0.00 0.00 99 1019.7
20260503090408 46 315 0.0 0.0 0.00 0.00 0.00 99 1018.2
20260503081335 48 306 0.0 0.0 0.00 0.00 0.00 98 1018.0
20260503080831 48 306 0.0 0.0 0.00 0.00 0.00 99 1017.9
20260503080328 48 315 0.0 0.0 0.00 0.00 0.00 99 1017.9
20260503072805 49 278 1.0 1.0 0.00 0.00 0.00 99 1017.5
20260503072305 49 281 1.0 1.0 0.00 0.00 0.00 99 1017.5
20260503071758 49 293 0.0 1.0 0.00 0.00 0.00 99 1017.5
20260503071255 49 304 0.0 1.0 0.00 0.00 0.00 99 1017.6
20260503070751 49 293 0.0 1.0 0.00 0.00 0.00 98 1017.5
20260503070250 49 286 0.0 1.0 0.00 0.00 0.00 98 1017.3
20260503060214 50 337 2.0 2.0 0.00 0.00 0.00 98 1017.4
20260503054701 50 309 0.0 1.0 0.00 0.00 0.00 98 1017.5
20260503054159 50 312 0.0 1.0 0.00 0.00 0.00 98 1017.3
20260503053656 50 293 0.0 0.0 0.00 0.00 0.00 98 1017.4
20260503053155 50 304 0.0 2.0 0.00 0.00 0.00 98 1017.2
20260503052651 50 326 0.0 0.0 0.00 0.00 0.00 98 1017.3
20260503052147 51 326 0.0 1.0 0.00 0.00 0.00 98 1017.4
20260503051642 51 272 0.0 1.0 0.00 0.00 0.00 98 1017.1
20260503051141 51 307 1.0 1.0 0.00 0.00 0.00 98 1017.1
20260503050637 51 305 0.0 1.0 0.00 0.00 0.00 98 1017.0
20260503050134 51 310 0.0 1.0 0.00 0.00 0.00 98 1017.1
20260503045631 51 269 0.0 1.0 0.00 0.00 0.00 98 1017.2
20260503045128 51 325 0.0 0.0 0.00 0.00 0.00 98 1016.8
20260503044625 51 269 0.0 0.0 0.00 0.00 0.00 98 1017.0
20260503044123 51 264 1.0 1.0 0.00 0.00 0.00 98 1017.0
20260503043619 51 269 0.0 0.0 0.00 0.00 0.00 98 1016.7
20260503043116 51 347 0.0 1.0 0.00 0.00 0.00 98 1016.6
20260503042612 52 303 1.0 1.0 0.00 0.00 0.00 98 1016.7
20260503042108 52 304 0.0 1.0 0.00 0.00 0.00 98 1016.7
20260503041605 52 315 0.0 1.0 0.00 0.00 0.00 98 1016.6
20260503041103 52 315 0.0 0.0 0.00 0.00 0.00 98 1016.4
20260503040600 52 293 0.0 1.0 0.00 0.00 0.00 98 1016.3
20260503040057 52 299 0.0 2.0 0.00 1.08 1.08 98 1016.5
20260503035554 52 320 0.0 1.0 0.00 1.08 1.08 98 1016.3
20260503035052 52 289 0.0 1.0 0.00 1.08 1.08 98 1016.3
20260503034549 52 293 1.0 2.0 0.00 1.08 1.08 98 1016.3
20260503034046 52 269 0.0 1.0 0.00 1.08 1.08 98 1016.2
20260503033543 52 295 0.0 1.0 0.00 1.08 1.08 97 1016.4
20260503033041 52 283 1.0 2.0 0.00 1.08 1.08 97 1016.2
20260503032539 52 321 0.0 0.0 0.00 1.08 1.08 97 1016.0
20260503032037 52 313 0.0 1.0 0.00 1.08 1.08 97 1015.9
20260503031534 52 269 0.0 1.0 0.00 1.08 1.08 97 1016.0
20260503031031 52 293 0.0 1.0 0.00 1.08 1.08 97 1015.9
20260503030527 53 315 0.0 1.0 0.00 1.08 1.08 97 1015.9
20260503030025 53 299 0.0 1.0 0.00 1.08 1.08 97 1015.8
20260503025521 53 246 0.0 1.0 0.00 1.08 1.08 97 1015.6
20260503025019 53 290 0.0 1.0 0.00 1.08 1.08 97 1015.5
20260503024515 53 283 0.0 1.0 0.00 1.08 1.08 97 1015.3
20260503024013 53 283 0.0 1.0 0.00 1.08 1.08 97 1015.2
20260503023509 53 255 0.0 1.0 0.00 1.08 1.08 97 1015.3
20260503023006 54 264 1.0 1.0 0.00 1.08 1.08 97 1015.2
20260503022502 54 291 1.0 2.0 0.00 1.08 1.08 97 1015.1
20260503021957 54 302 0.0 2.0 0.00 1.08 1.08 97 1015.0
20260503021454 54 282 0.0 1.0 0.00 1.08 1.08 96 1015.1
20260503020951 54 309 0.0 1.0 0.00 1.08 1.08 96 1014.9
20260503020448 54 284 1.0 2.0 0.00 1.08 1.08 96 1015.0
20260503015945 55 312 1.0 2.0 0.00 1.08 1.08 96 1014.7
20260503015442 55 293 0.0 1.0 0.00 1.08 1.08 96 1014.6
20260503014938 55 287 0.0 1.0 0.00 1.08 1.08 96 1014.7
20260503014435 55 309 0.0 1.0 0.00 1.08 1.08 96 1014.5
20260503013933 55 246 0.0 1.0 0.00 1.08 1.08 96 1014.4
20260503013430 55 269 0.0 2.0 0.00 1.08 1.08 96 1014.4
20260503012927 55 304 0.0 2.0 0.00 1.08 1.08 96 1014.3
20260503012425 55 274 2.0 2.0 0.00 1.08 1.08 96 1014.3
20260503011921 55 295 0.0 2.0 0.00 1.08 1.08 96 1014.2
20260503011418 55 306 0.0 1.0 0.00 1.08 1.08 96 1014.3
20260503010915 55 284 1.0 2.0 0.00 1.08 1.08 96 1014.2
20260503010412 55 299 0.0 1.0 0.00 1.08 1.08 96 1014.2
20260503005909 55 293 0.0 1.0 0.00 1.08 1.08 96 1014.3
20260503005406 55 256 0.0 2.0 0.00 1.08 1.08 96 1014.2
20260503004902 55 339 0.0 1.0 0.00 1.08 1.08 96 1014.2
20260503004400 55 262 1.0 2.0 0.00 1.08 1.08 96 1014.1
20260503003857 55 316 0.0 4.0 0.00 1.08 1.08 96 1014.0
20260503003354 55 240 1.0 2.0 0.00 1.08 1.08 96 1013.9
20260503002850 55 259 2.0 3.0 0.00 1.08 1.08 96 1013.9
20260503002348 55 291 2.0 2.0 0.00 1.08 1.08 96 1013.8
20260503001844 55 202 0.0 2.0 0.00 1.08 1.08 96 1013.7
20260503001340 55 285 0.0 1.0 0.00 1.08 1.08 96 1013.5
20260503000838 55 252 1.0 2.0 0.00 1.08 1.08 96 1013.5
20260503000335 55 352 0.0 1.0 0.00 1.08 1.08 96 1013.4
20260502235832 55 294 1.0 2.0 0.00 1.08 1.08 96 1013.5
20260502235330 55 288 2.0 2.0 0.00 1.08 1.08 96 1013.4
20260502234826 55 338 1.0 2.0 0.00 1.08 1.08 96 1013.2
20260502234323 55 279 2.0 2.0 0.00 1.08 1.08 96 1013.3
20260502233820 55 296 1.0 2.0 0.00 1.08 1.08 96 1013.2
20260502233316 56 311 0.0 1.0 0.00 1.08 1.08 96 1013.3
20260502232813 55 152 1.0 2.0 0.00 1.08 1.08 96 1012.9
20260502232309 56 325 3.0 4.0 0.00 1.08 1.08 95 1012.9
20260502231806 56 137 1.0 3.0 0.00 1.08 1.08 95 1013.0
20260502231304 56 294 2.0 2.0 0.00 1.08 1.08 95 1012.9
20260502230802 56 328 1.0 2.0 0.00 1.08 1.08 95 1012.6
20260502230300 56 269 2.0 2.0 0.00 1.08 1.08 95 1012.8
20260502225756 56 325 1.0 3.0 0.00 1.08 1.08 95 1012.8
20260502225253 56 310 1.0 2.0 0.00 1.08 1.08 95 1012.7
20260502224749 56 298 1.0 2.0 0.00 1.08 1.08 95 1012.9
20260502224246 56 273 1.0 3.0 0.00 1.08 1.08 94 1012.9
20260502223743 56 273 1.0 3.0 0.00 1.08 1.08 94 1012.9
20260502223241 56 296 0.0 2.0 0.00 1.08 1.08 94 1012.7
20260502222739 56 92 3.0 5.0 0.00 1.08 1.08 95 1012.5
20260502222236 57 345 1.0 3.0 0.00 1.08 1.08 95 1012.9
20260502221731 57 20 2.0 3.0 0.00 1.08 1.08 95 1012.6
20260502221228 57 337 1.0 2.0 0.00 1.08 1.08 95 1012.6
20260502220725 57 285 2.0 2.0 0.00 1.08 1.08 95 1012.7
20260502220221 57 278 1.0 2.0 0.00 1.08 1.08 95 1012.7
20260502215718 57 316 1.0 2.0 0.00 1.08 1.08 96 1012.7
20260502215215 57 23 1.0 3.0 0.00 1.08 1.08 95 1012.5
20260502214712 57 306 2.0 2.0 0.00 1.08 1.08 96 1012.3
20260502214209 57 5 2.0 3.0 0.00 1.08 1.08 96 1012.3
20260502213706 57 283 0.0 3.0 0.00 1.08 1.08 96 1012.3
20260502213204 57 13 0.0 3.0 0.00 1.08 1.08 96 1012.0
20260502212702 57 322 1.0 3.0 0.00 1.08 1.08 96 1012.0
20260502212200 57 299 2.0 3.0 0.00 1.08 1.08 96 1011.7